Flag for U.S.A. Weather past 2 weeks in Boston, Massachusetts, U.S.A.

Now
72 °F

Scattered clouds.


Feels Like: 77 °F
Forecast: 59 / 76 °F
Wind: 7 mph from North

Location: Logan International Airport

Current Time: Aug 30, 2014 at 1:03:48 PM

Latest Report: Aug 30, 2014 at 11:54 AM


Visibility: 10 mi

Pressure: 30.26 "Hg

Humidity: 53%

Dew point: 54 °F

Location of BostonLocation

Historic Weather in Boston — Graph

°F

Boston temperature yesterday

Maximum temperature yesterday: 70 °F (at 9:54 AM)
Minimum temperature yesterday: 60 °F (at 4:54 AM)
Average temperature yesterday: 64 °F

Past Weeks' High & Low Weather Summary

 TemperatureHumidityPressure
High90 °F (Aug 27, 1:54 PM)94% (Aug 22, 4:54 AM)30.31 "Hg (Aug 22, 4:54 AM)
Low58 °F (Aug 30, 4:54 AM)31% (Aug 28, 5:54 PM)29.75 "Hg (Aug 17, 3:54 PM)
Average69 °F66%30.01 "Hg
* Reported Aug 15 11:54 AM — Aug 30 11:54 AM, Boston, Weather by CustomWeather, © 2014

Note: Actual official high and low records may vary slightly from our data, if they occured in-between our weather recording intervals... More about our weather records

Advertising

Boston weather history for previous 24 hours

 ConditionsComfort  
Time TempWeatherWind HumidityBarometerVisibility
11:54 AM
Aug 30
72 °FScattered clouds.7 mph53%30.26 "Hg10 mi
9:54 AM68 °FPassing clouds.8 mph68%30.29 "Hg10 mi
8:54 AM66 °FPassing clouds.8 mph75%30.29 "Hg10 mi
7:54 AM62 °FScattered clouds.7 mph83%30.31 "Hg10 mi
6:54 AM59 °FClear.6 mph87%30.31 "Hg10 mi
5:54 AM58 °FClear.5 mph90%30.29 "Hg10 mi
4:54 AM58 °FPassing clouds.6 mph90%30.29 "Hg10 mi
3:54 AM59 °FClear.5 mph87%30.29 "Hg10 mi
2:54 AM59 °FClear.6 mph87%30.29 "Hg10 mi
1:54 AM59 °FPassing clouds.6 mph84%30.29 "Hg10 mi
12:54 AM60 °FPassing clouds.5 mph80%30.28 "Hg10 mi
11:54 PM
Aug 29
61 °FPassing clouds.8 mph78%30.28 "Hg10 mi
10:54 PM61 °FPassing clouds.8 mph81%30.28 "Hg10 mi
9:54 PM62 °FPassing clouds.6 mph78%30.27 "Hg10 mi
8:54 PM63 °FPassing clouds.10 mph73%30.25 "Hg10 mi
7:54 PM63 °FScattered clouds.8 mph70%30.24 "Hg10 mi
6:54 PM64 °FScattered clouds.12 mph70%30.22 "Hg10 mi
5:54 PM66 °FScattered clouds.10 mph65%30.22 "Hg10 mi
4:54 PM66 °FScattered clouds.14 mph68%30.21 "Hg10 mi
1:54 PM69 °FPassing clouds.13 mph59%30.20 "Hg10 mi
Weather by CustomWeather, © 2014

See weather overviewHow to use our weather pages